Home   Weather   Tofol   Past weeks

Flag for Micronesia Past Weather in Tofol, Kosrae, Micronesia — Yesterday and Last 2 Weeks

Now
78 °F

Mostly cloudy.


Feels Like: 80 °F
Forecast: 80 / 85 °F
Wind: 7 mph from Southeast

Location: Pohnpei

Current Time: Dec 5, 2016 at 9:45:49 pm

Latest Report: Dec 5, 2016 at 8:50 pm


Visibility: 15 mi

Pressure: 29.80 "Hg

Humidity: 93%

Dew Point: 75 °F

Location of TofolLocation

Past Weather in Tofol — Graph

°F

Tofol Temperature Yesterday

Maximum temperature yesterday: 89 °F (at 11:54 am)
Minimum temperature yesterday: 79 °F (at 1:52 am)
Average temperature yesterday: 83 °F

High & Low Weather Summary for the Past Weeks

 TemperatureHumidityPressure
High90 °F (Nov 28, 12:52 pm)100% (Nov 20, 11:50 pm)29.90 "Hg (Nov 20, 11:50 pm)
Low74 °F (Dec 1, 4:53 pm)62% (Nov 22, 8:53 am)29.65 "Hg (Nov 22, 12:52 am)
Average82 °F83%29.80 "Hg
* Reported Nov 20 7:50 pm — Dec 5 7:55 pm, Tofol, Weather by CustomWeather, © 2016

Note: Actual official high and low records may vary slightly from our data, if they occured in-between our weather recording intervals... More about our weather records

Advertising

Tofol Weather History for the Previous 24 Hours

Scroll right to see more
 ConditionsComfort  
Time TempWeatherWind HumidityBarometerVisibility
7:55 pm
Mon, Dec 5
77 °FRain showers. Mostly cloudy.7 mph96%29.80 "Hg12 mi
6:50 pm82 °FMostly cloudy.7 mph79%29.78 "Hg15 mi
5:50 pm81 °FSprinkles. Mostly cloudy.6 mph94%29.77 "Hg14 mi
4:54 pm81 °FMostly cloudy.6 mph89%29.75 "Hg15 mi
3:50 pm80 °FMostly cloudy.6 mph90%29.74 "Hg12 mi
2:50 pm78 °FLots of rain. Mostly cloudy.9 mph89%29.75 "Hg10 mi
1:52 pm81 °FSprinkles. Mostly cloudy.3 mph88%29.76 "Hg13 mi
12:50 pm78 °FLots of rain. Mostly cloudy.17 mph96%29.78 "Hg5 mi
11:51 am82 °FMostly cloudy.3 mph87%29.80 "Hg15 mi
10:52 am85 °FMostly cloudy.15 mph78%29.82 "Hg15 mi
9:50 am85 °FMostly cloudy.9 mph79%29.84 "Hg15 mi
8:50 am84 °FMostly cloudy.14 mph62%29.83 "Hg15 mi
7:53 am84 °FMostly cloudy.14 mph77%29.84 "Hg15 mi
6:52 am83 °FMostly cloudy.5 mph80%29.82 "Hg15 mi
5:50 am82 °FMostly cloudy.13 mph83%29.80 "Hg15 mi
4:52 am82 °FMostly cloudy.6 mph84%29.78 "Hg15 mi
3:51 am82 °FMostly cloudy.12 mph84%29.78 "Hg15 mi
2:51 am81 °FMostly cloudy.3 mph85%29.77 "Hg15 mi
1:54 am80 °FMostly cloudy.10 mph90%29.80 "Hg15 mi
12:53 am81 °FSprinkles. Mostly cloudy.6 mph87%29.83 "Hg13 mi
11:50 pm
Sun, Dec 4
83 °FPartly cloudy.12 mph84%29.83 "Hg15 mi
10:50 pm83 °FSprinkles. Mostly cloudy.12 mph76%29.84 "Hg15 mi
9:50 pm84 °FMostly cloudy.14 mph79%29.83 "Hg15 mi
Weather by CustomWeather, © 2016

See weather overviewHow to use our weather pages